Mount Sterling, KY

6:54 PM EST on February 22, 2017 (GMT -0500)
Mount Sterling-Montgomery County

Weather History for KIOB - July, 2012

Change the Weather History Date:

Saturday, July 14, 2012

  Actual Average Record
Temperature  
Mean Temperature 78 °F -  
Max Temperature 87 °F 85 °F 87 °F (2013)
Min Temperature 69 °F 64 °F 66 °F (2015)
Cooling Degree Days 13    
Growing Degree Days 28 (Base 50)    
Moisture  
Dew Point 71 °F    
Average Humidity 89    
Maximum Humidity 100    
Minimum Humidity 52    
Precipitation  
Precipitation 0.00 in - - ()
Sea Level Pressure  
Sea Level Pressure 30.15 in    
Wind  
Wind Speed 4 mph ()    
Max Wind Speed 12 mph    
Max Gust Speed 18 mph    
Visibility 9.7 miles    
Events Rain    
Averages and records for this station are not official NWS values.
T = Trace of Precipitation, MM = Missing Value Source: Averaged Metar Reports

Daily Weather History Graph

Daily Weather History Graph

Search for Another Location

Airport or City:

Trip Planner

Search our weather history database for the weather conditions in past years. The results will help you decide how hot, cold, wet, or windy it might be!

Date:

Astronomy

Jul. 14, 2012 Rise Set
Actual Time 6:24 AM EDT 8:58 PM EDT
Civil Twilight 5:54 AM EDT 9:29 PM EDT
Nautical Twilight 5:16 AM EDT 10:07 PM EDT
Astronomical Twilight 4:33 AM EDT 10:49 PM EDT
Moon 2:38 AM EDT (7/14) 5:22 PM EDT (7/14)
Length of Visible Light 15h 34m
Length of Day
14h 33m
Waning Crescent, 19% of the Moon is Illuminated
Jul 14
Waning Crescent
Jul 19
New
Jul 26
First Quarter
Aug 1
Full
Aug 9
Last Quarter

Hourly Weather History & Observations

Time (EDT) Temp. Heat Index Dew Point Humidity Pressure Visibility Wind Dir Wind Speed Gust Speed Precip Events Conditions
12:15 AM 71.6 °F - 71.6 °F 100% 30.15 in 10.0 mi South 4.6 mph - N/A   Overcast
12:35 AM 71.6 °F - 71.6 °F 100% 30.15 in 10.0 mi South 4.6 mph - N/A   Overcast
12:55 AM 71.6 °F - 71.6 °F 100% 30.15 in 10.0 mi SSE 3.5 mph - N/A   Overcast
1:15 AM 71.6 °F - 71.6 °F 100% 30.14 in 10.0 mi SSE 3.5 mph - N/A   Overcast
1:35 AM 71.6 °F - 71.6 °F 100% 30.14 in 10.0 mi South 3.5 mph - N/A   Overcast
1:55 AM 71.6 °F - 71.6 °F 100% 30.14 in 10.0 mi South 3.5 mph - N/A   Overcast
2:15 AM 71.6 °F - 71.6 °F 100% 30.13 in 10.0 mi Calm Calm - N/A   Scattered Clouds
2:35 AM 71.6 °F - 69.8 °F 94% 30.13 in 10.0 mi Calm Calm - N/A   Clear
2:55 AM 69.8 °F - 69.8 °F 100% 30.13 in 10.0 mi Calm Calm - N/A   Clear
3:35 AM 69.8 °F - 69.8 °F 100% 30.12 in 10.0 mi Calm Calm - N/A   Clear
3:55 AM 69.8 °F - 69.8 °F 100% 30.12 in 10.0 mi SSW 4.6 mph - N/A   Clear
4:15 AM 69.8 °F - 69.8 °F 100% 30.12 in 10.0 mi Calm Calm - N/A   Clear
4:35 AM 69.8 °F - 69.8 °F 100% 30.12 in 10.0 mi SSW 3.5 mph - N/A   Clear
4:55 AM 69.8 °F - 69.8 °F 100% 30.12 in 10.0 mi SSW 4.6 mph - N/A   Clear
5:15 AM 69.8 °F - 69.8 °F 100% 30.12 in 10.0 mi SSW 4.6 mph - N/A   Clear
5:35 AM 69.8 °F - 69.8 °F 100% 30.13 in 10.0 mi SSW 5.8 mph - N/A   Clear
6:15 AM 69.8 °F - 69.8 °F 100% 30.14 in 10.0 mi SSW 5.8 mph - N/A   Clear
6:35 AM 69.8 °F - 69.8 °F 100% 30.15 in 10.0 mi SSW 3.5 mph - N/A   Clear
6:55 AM 69.8 °F - 69.8 °F 100% 30.15 in 10.0 mi SSW 4.6 mph - N/A   Clear
7:15 AM 69.8 °F - 69.8 °F 100% 30.15 in 10.0 mi Calm Calm - N/A   Clear
7:35 AM 71.6 °F - 69.8 °F 94% 30.16 in 10.0 mi SW 3.5 mph - N/A   Clear
7:55 AM 71.6 °F - 69.8 °F 94% 30.16 in 10.0 mi SW 3.5 mph - N/A   Clear
8:15 AM 73.4 °F - 69.8 °F 88% 30.17 in 10.0 mi WSW 5.8 mph - N/A   Clear
8:35 AM 73.4 °F - 69.8 °F 88% 30.18 in 10.0 mi SW 6.9 mph - N/A   Clear
8:55 AM 75.2 °F - 71.6 °F 89% 30.18 in 10.0 mi WSW 8.1 mph - N/A   Clear
9:15 AM 77.0 °F - 71.6 °F 83% 30.18 in 10.0 mi WSW 5.8 mph - N/A   Clear
9:35 AM 77.0 °F - 71.6 °F 83% 30.19 in 10.0 mi West 5.8 mph - N/A   Clear
9:55 AM 78.8 °F - 71.6 °F 78% 30.19 in 10.0 mi WSW 6.9 mph - N/A   Clear
10:15 AM 78.8 °F - 71.6 °F 78% 30.19 in 10.0 mi SW 8.1 mph - N/A   Scattered Clouds
10:35 AM 80.6 °F 84.6 °F 71.6 °F 74% 30.19 in 10.0 mi WSW 10.4 mph 18.4 mph N/A   Scattered Clouds
10:55 AM 80.6 °F 84.6 °F 71.6 °F 74% 30.19 in 10.0 mi West 9.2 mph - N/A   Scattered Clouds
11:15 AM 80.6 °F 84.6 °F 71.6 °F 74% 30.19 in 10.0 mi West 8.1 mph - N/A   Scattered Clouds
11:35 AM 80.6 °F 84.6 °F 71.6 °F 74% 30.19 in 10.0 mi West 6.9 mph - N/A   Mostly Cloudy
11:55 AM 82.4 °F 86.3 °F 69.8 °F 66% 30.18 in 10.0 mi West 3.5 mph - N/A   Scattered Clouds
12:15 PM 82.4 °F 86.3 °F 69.8 °F 66% 30.18 in 10.0 mi West 5.8 mph - N/A   Scattered Clouds
12:35 PM 84.2 °F 89.6 °F 71.6 °F 66% 30.17 in 10.0 mi WSW 5.8 mph - N/A   Scattered Clouds
12:55 PM 82.4 °F 86.3 °F 69.8 °F 66% 30.16 in 10.0 mi West 5.8 mph - N/A   Scattered Clouds
1:15 PM 82.4 °F 87.2 °F 71.6 °F 70% 30.16 in 10.0 mi WSW 5.8 mph - N/A   Clear
1:35 PM 84.2 °F 88.4 °F 69.8 °F 62% 30.15 in 10.0 mi WSW 4.6 mph - N/A   Clear
1:55 PM 87.8 °F 91.4 °F 68.0 °F 52% 30.14 in 10.0 mi SSW 5.8 mph - N/A   Clear
2:15 PM 87.8 °F 92.6 °F 69.8 °F 55% 30.13 in 10.0 mi SSW 4.6 mph - N/A   Clear
2:35 PM 86.0 °F 90.4 °F 69.8 °F 58% 30.12 in 10.0 mi South 10.4 mph - N/A   Mostly Cloudy
2:55 PM 86.0 °F 91.8 °F 71.6 °F 62% 30.13 in 10.0 mi South 11.5 mph - N/A   Mostly Cloudy
3:15 PM 84.2 °F 89.6 °F 71.6 °F 66% 30.13 in 10.0 mi South 6.9 mph - N/A   Scattered Clouds
3:35 PM 78.8 °F - 68.0 °F 69% 30.15 in 10.0 mi NNE 8.1 mph 16.1 mph N/A   Mostly Cloudy
3:55 PM 75.2 °F - 69.8 °F 83% 30.16 in 10.0 mi NW 4.6 mph - N/A   Overcast
4:15 PM 73.4 °F - 69.8 °F 88% 30.17 in 2.0 mi NNW 5.8 mph - N/A Rain Rain
4:35 PM 71.6 °F - 71.6 °F 100% 30.16 in 0.8 mi ENE 3.5 mph - N/A Rain Rain
4:55 PM 71.6 °F - 71.6 °F 100% 30.16 in 10.0 mi NNE 3.5 mph - N/A   Mostly Cloudy
5:15 PM 73.4 °F - 71.6 °F 94% 30.16 in 10.0 mi Calm Calm - N/A   Mostly Cloudy
5:35 PM 73.4 °F - 71.6 °F 94% 30.16 in 10.0 mi Calm Calm - N/A   Scattered Clouds
5:55 PM 73.4 °F - 71.6 °F 94% 30.18 in 10.0 mi SSW 4.6 mph - N/A Rain Light Rain
6:15 PM 73.4 °F - 71.6 °F 94% 30.17 in 7.0 mi Calm Calm - N/A Rain Light Rain
6:35 PM 71.6 °F - 71.6 °F 100% 30.17 in 7.0 mi South 4.6 mph - N/A Rain Light Rain
6:55 PM 71.6 °F - 71.6 °F 100% 30.16 in 10.0 mi South 5.8 mph - N/A Rain Light Rain
7:15 PM 71.6 °F - 71.6 °F 100% 30.15 in 10.0 mi South 5.8 mph - N/A Rain Light Rain
7:35 PM 71.6 °F - 69.8 °F 94% 30.13 in 10.0 mi SSE 6.9 mph - N/A   Scattered Clouds
7:55 PM 71.6 °F - 69.8 °F 94% 30.14 in 10.0 mi SSW 4.6 mph - N/A   Scattered Clouds
8:15 PM 71.6 °F - 71.6 °F 100% 30.15 in 10.0 mi SSW 5.8 mph - N/A   Scattered Clouds
8:35 PM 71.6 °F - 71.6 °F 100% 30.15 in 10.0 mi SSW 5.8 mph - N/A   Scattered Clouds
8:55 PM 71.6 °F - 71.6 °F 100% 30.15 in 10.0 mi South 6.9 mph - N/A   Clear
9:15 PM 71.6 °F - 69.8 °F 94% 30.15 in 10.0 mi SSW 6.9 mph - N/A   Clear
9:35 PM 71.6 °F - 69.8 °F 94% 30.15 in 10.0 mi SSW 4.6 mph - N/A   Clear
9:55 PM 71.6 °F - 69.8 °F 94% 30.14 in 10.0 mi SSW 4.6 mph - N/A   Clear
10:15 PM 71.6 °F - 69.8 °F 94% 30.15 in 10.0 mi Calm Calm - N/A   Clear
10:35 PM 69.8 °F - 69.8 °F 100% 30.16 in 10.0 mi SW 3.5 mph - N/A   Clear
10:55 PM 69.8 °F - 69.8 °F 100% 30.16 in 10.0 mi SSW 3.5 mph - N/A   Clear
11:15 PM 69.8 °F - 69.8 °F 100% 30.16 in 10.0 mi Calm Calm - N/A   Clear